| time (UTC) | temp F | wind direction | speed MPH | gust MPH | rain 1hr in | rain 24hr in | rain mn in | humidity % | barometer mb |
| 20260904140718 | 101 | 258 | 10.0 | 17.0 | 0.00 | 0.00 | 0.00 | 25 | 1015.1 |
| 20260904133718 | 101 | 249 | 6.0 | 12.0 | 0.00 | 0.00 | 0.00 | 24 | 1015.2 |
| 20260904130718 | 100 | 232 | 6.0 | 14.0 | 0.00 | 0.00 | 0.00 | 24 | 1015.5 |
| 20260904130218 | 100 | 258 | 9.0 | 20.0 | 0.00 | 0.00 | 0.00 | 26 | 1015.4 |
| 20260904123717 | 100 | 256 | 6.0 | 20.0 | 0.00 | 0.00 | 0.00 | 25 | 1015.6 |
| 20260904120717 | 100 | 258 | 9.0 | 17.0 | 0.00 | 0.00 | 0.00 | 27 | 1015.9 |
| 20260904113218 | 98 | 236 | 5.0 | 14.0 | 0.00 | 0.00 | 0.00 | 30 | 1016.1 |
| 20260904100217 | 87 | 72 | 2.0 | 6.0 | 0.00 | 0.00 | 0.00 | 61 | 1017.2 |
| 20260904093217 | 85 | 70 | 1.0 | 6.0 | 0.00 | 0.00 | 0.00 | 63 | 1017.7 |
| 20260904083217 | 81 | 111 | 0.0 | 0.0 | 0.00 | 0.00 | 0.00 | 70 | 1017.9 |
| 20260904073717 | 77 | 236 | 0.0 | 0.0 | 0.00 | 0.00 | 0.00 | 74 | 1017.9 |
| 20260904070718 | 71 | 240 | 0.0 | 0.0 | 0.00 | 0.00 | 0.00 | 78 | 1018.3 |
| 20260904070217 | 71 | 238 | 0.0 | 0.0 | 0.00 | 0.00 | 0.00 | 78 | 1018.2 |
| 20260904063717 | 69 | 243 | 0.0 | 0.0 | 0.00 | 0.00 | 0.00 | 80 | 1018.4 |
| 20260904053217 | 64 | 254 | 0.0 | 0.0 | 0.00 | 0.00 | 0.00 | 79 | 1018.4 |
| 20260904050217 | 64 | 250 | 0.0 | 0.0 | 0.00 | 0.00 | 0.00 | 80 | 1018.2 |
| 20260904040216 | 64 | 250 | 0.0 | 0.0 | 0.00 | 0.00 | 0.00 | 79 | 1018.3 |
| 20260904033216 | 64 | 250 | 0.0 | 0.0 | 0.00 | 0.00 | 0.00 | 80 | 1018.6 |
| 20260904030716 | 65 | 250 | 0.0 | 0.0 | 0.00 | 0.00 | 0.00 | 80 | 1018.7 |
| 20260904030216 | 65 | 250 | 0.0 | 0.0 | 0.00 | 0.00 | 0.00 | 80 | 1018.7 |
| 20260904023716 | 66 | 250 | 0.0 | 0.0 | 0.00 | 0.00 | 0.00 | 80 | 1018.7 |
| 20260904023216 | 66 | 250 | 0.0 | 3.0 | 0.00 | 0.00 | 0.00 | 80 | 1018.6 |
| 20260904020716 | 67 | 250 | 0.0 | 0.0 | 0.00 | 0.00 | 0.00 | 80 | 1018.8 |
| 20260904003716 | 68 | 231 | 0.0 | 0.0 | 0.00 | 0.00 | 0.00 | 79 | 1019.2 |
| 20260904000716 | 68 | 228 | 0.0 | 0.0 | 0.00 | 0.00 | 0.00 | 79 | 1019.3 |
| 20260904000218 | 68 | 228 | 0.0 | 0.0 | 0.00 | 0.00 | 0.00 | 79 | 1019.4 |
| 20260903233216 | 69 | 228 | 0.0 | 0.0 | 0.00 | 0.00 | 0.00 | 79 | 1019.4 |
| 20260903230216 | 69 | 228 | 0.0 | 0.0 | 0.00 | 0.00 | 0.00 | 79 | 1019.6 |
| 20260903223716 | 70 | 228 | 0.0 | 0.0 | 0.00 | 0.00 | 0.00 | 78 | 1019.5 |
| 20260903220717 | 72 | 228 | 0.0 | 0.0 | 0.00 | 0.00 | 0.00 | 77 | 1019.2 |
| 20260903213716 | 73 | 314 | 0.0 | 0.0 | 0.00 | 0.00 | 0.00 | 77 | 1019.3 |
| 20260903210215 | 74 | 64 | 0.0 | 0.0 | 0.00 | 0.00 | 0.00 | 77 | 1019.5 |
| 20260903200715 | 77 | 87 | 0.0 | 1.0 | 0.00 | 0.00 | 0.00 | 74 | 1019.1 |
| 20260903200216 | 77 | 107 | 0.0 | 6.0 | 0.00 | 0.00 | 0.00 | 74 | 1019.4 |
| 20260903193716 | 78 | 98 | 0.0 | 0.0 | 0.00 | 0.00 | 0.00 | 73 | 1018.9 |
| 20260903190716 | 80 | 96 | 1.0 | 3.0 | 0.00 | 0.00 | 0.00 | 71 | 1018.3 |
| 20260903190216 | 80 | 108 | 0.0 | 3.0 | 0.00 | 0.00 | 0.00 | 71 | 1018.5 |
| 20260903183215 | 81 | 89 | 0.0 | 2.0 | 0.00 | 0.00 | 0.00 | 68 | 1017.9 |
| 20260903173715 | 85 | 184 | 1.0 | 3.0 | 0.00 | 0.00 | 0.00 | 63 | 1017.7 |
| 20260903173215 | 85 | 163 | 0.0 | 10.0 | 0.00 | 0.00 | 0.00 | 62 | 1017.7 |
| 20260903170215 | 89 | 216 | 2.0 | 9.0 | 0.00 | 0.00 | 0.00 | 58 | 1017.3 |
| 20260903163215 | 90 | 216 | 1.0 | 10.0 | 0.00 | 0.00 | 0.00 | 56 | 1017.2 |
| 20260903160215 | 91 | 225 | 3.0 | 15.0 | 0.00 | 0.00 | 0.00 | 51 | 1017.2 |
| 20260903153215 | 92 | 138 | 3.0 | 16.0 | 0.00 | 0.00 | 0.00 | 49 | 1017.2 |
| 20260903150215 | 92 | 113 | 8.0 | 16.0 | 0.00 | 0.00 | 0.00 | 46 | 1017.1 |